.
WxDataArchive / Data Records for 2012-10-14
2012-10-13 October 2012 2012-10-15

Data Records for Sunday, 14 October 2012

Time	Temp	Chill	HIndex	Humid	Dewpt	 Wind 	HiWind	WindDir	Rain 	Barom 
-----	----	-----	------	-----	-----	------	------	-------	-----	----- 
00:00	64.3	64.3	64.3	90	61.3	0	3	248	0.00	29.908 
00:05	64.3	64.3	64.3	90	61.3	0	3	248	0.00	29.908 
00:10	64.5	64.5	64.5	90	61.5	1	3	315	0.00	29.908 
00:15	64.5	64.5	64.5	90	61.5	1	6	248	0.00	29.896 
00:20	64.5	64.5	64.5	90	61.5	0	3	248	0.00	29.896 
00:25	64.7	64.7	64.7	90	61.7	0	3	248	0.00	29.896 
00:30	64.7	64.7	64.7	90	61.7	1	3	248	0.00	29.891 
00:35	64.8	64.8	64.8	90	61.8	0	2	248	0.00	29.891 
00:40	64.8	64.8	64.8	90	61.8	0	4	248	0.00	29.891 
00:45	65.0	65.0	65.0	90	62.0	1	4	248	0.00	29.889 
00:50	65.0	65.0	65.0	90	62.0	0	4	248	0.00	29.889 
00:55	65.0	65.0	65.0	90	62.0	1	4	248	0.00	29.889 
01:00	65.2	65.2	65.2	90	62.2	1	4	68	0.00	29.885 
01:05	65.2	65.2	65.2	90	62.2	1	4	248	0.00	29.885 
01:10	65.2	65.2	65.2	90	62.2	1	3	248	0.00	29.885 
01:15	65.2	65.2	65.2	89	61.9	0	4	248	0.00	29.879 
01:20	65.2	65.2	65.2	89	61.9	0	4	248	0.00	29.879 
01:25	65.2	65.2	65.2	89	61.9	1	5	248	0.00	29.879 
01:30	65.3	65.3	65.3	89	62.0	1	4	248	0.00	29.875 
01:35	65.3	65.3	65.3	89	62.0	0	4	248	0.00	29.875 
01:40	65.3	65.3	65.3	89	62.0	1	4	248	0.00	29.875 
01:45	65.3	65.3	65.3	89	62.0	1	5	248	0.00	29.876 
01:50	65.3	65.3	65.3	89	62.0	1	3	248	0.00	29.876 
01:55	65.3	65.3	65.3	89	62.0	0	2	248	0.00	29.876 
02:00	65.3	65.3	65.3	89	62.0	1	6	248	0.00	29.873 
02:05	65.3	65.3	65.3	89	62.0	0	3	248	0.00	29.873 
02:10	65.3	65.3	65.3	89	62.0	0	4	270	0.00	29.873 
02:15	65.3	65.3	65.3	89	62.0	1	4	248	0.00	29.870 
02:20	65.5	65.5	65.5	89	62.2	1	3	248	0.00	29.870 
02:25	65.5	65.5	65.5	89	62.2	1	4	248	0.00	29.870 
02:30	65.5	65.5	65.5	89	62.2	1	3	248	0.00	29.870 
02:35	65.5	65.5	65.5	89	62.2	1	3	270	0.00	29.870 
02:40	65.5	65.5	65.5	88	61.8	1	4	270	0.00	29.870 
02:45	65.5	65.5	65.5	88	61.8	1	3	270	0.00	29.870 
02:50	65.5	65.5	65.5	88	61.8	1	4	248	0.00	29.870 
02:55	65.5	65.5	65.5	88	61.8	0	3	248	0.00	29.870 
03:00	65.5	65.5	65.5	88	61.8	0	1	225	0.00	29.866 
03:05	65.3	65.3	65.3	88	61.6	0	2	225	0.00	29.866 
03:10	65.3	65.3	65.3	88	61.6	0	2	225	0.00	29.866 
03:15	65.5	65.5	65.5	88	61.8	1	3	248	0.00	29.855 
03:20	65.5	65.5	65.5	88	61.8	0	2	248	0.00	29.855 
03:25	65.3	65.3	65.3	88	61.6	0	1	248	0.00	29.855 
03:30	65.3	65.3	65.3	88	61.6	0	4	248	0.00	29.851 
03:35	65.3	65.3	65.3	88	61.6	0	2	68	0.00	29.851 
03:40	65.3	65.3	65.3	88	61.6	0	2	315	0.00	29.851 
03:45	65.2	65.2	65.2	88	61.6	1	3	292	0.00	29.848 
03:50	65.2	65.2	65.2	88	61.6	1	5	270	0.00	29.848 
03:55	65.2	65.2	65.2	88	61.6	0	2	45	0.00	29.848 
04:00	65.2	65.2	65.2	88	61.6	0	2	292	0.00	29.845 
04:05	65.2	65.2	65.2	88	61.6	0	4	225	0.00	29.845 
04:10	65.2	65.2	65.2	88	61.6	0	3	225	0.00	29.845 
04:15	65.2	65.2	65.2	88	61.6	0	3	202	0.00	29.843 
04:20	65.2	65.2	65.2	88	61.6	0	3	248	0.00	29.843 
04:25	65.2	65.2	65.2	88	61.6	0	2	248	0.00	29.843 
04:30	65.2	65.2	65.2	88	61.6	0	2	270	0.00	29.841 
04:35	65.3	65.3	65.3	88	61.6	1	3	270	0.00	29.841 
04:40	65.5	65.5	65.5	88	61.8	1	5	292	0.00	29.841 
04:45	65.5	65.5	65.5	88	61.8	0	4	248	0.00	29.842 
04:50	65.3	65.3	65.3	88	61.6	0	3	248	0.00	29.842 
04:55	65.3	65.3	65.3	88	61.6	0	3	248	0.00	29.842 
05:00	65.3	65.3	65.3	88	61.6	1	4	248	0.00	29.842 
05:05	65.3	65.3	65.3	88	61.6	0	2	248	0.00	29.842 
05:10	65.3	65.3	65.3	87	61.3	0	5	248	0.00	29.842 
05:15	65.3	65.3	65.3	87	61.3	1	6	248	0.00	29.838 
05:20	65.5	65.5	65.5	87	61.5	1	5	225	0.00	29.838 
05:25	65.5	65.5	65.5	87	61.5	1	6	248	0.00	29.838 
05:30	65.5	65.5	65.5	87	61.5	1	4	68	0.00	29.834 
05:35	65.6	65.6	65.6	86	61.3	1	4	292	0.00	29.834 
05:40	65.6	65.6	65.6	86	61.3	1	6	248	0.00	29.834 
05:45	65.6	65.6	65.6	86	61.3	1	3	68	0.00	29.826 
05:50	65.5	65.5	65.5	86	61.2	1	2	338	0.00	29.826 
05:55	65.5	65.5	65.5	86	61.2	1	5	90	0.00	29.826 
06:00	65.5	65.5	65.5	86	61.2	1	3	90	0.00	29.823 
06:05	65.5	65.5	65.5	86	61.2	1	3	68	0.00	29.823 
06:10	65.3	65.3	65.3	86	61.0	1	4	68	0.00	29.823 
06:15	65.3	65.3	65.3	85	60.7	1	5	90	0.00	29.817 
06:20	65.3	65.3	65.3	85	60.7	1	5	90	0.00	29.817 
06:25	65.3	65.3	65.3	85	60.7	1	4	248	0.00	29.817 
06:30	65.3	65.3	65.3	85	60.7	2	5	90	0.00	29.810 
06:35	65.2	65.2	65.2	85	60.6	1	4	135	0.00	29.810 
06:40	65.2	65.2	65.2	85	60.6	0	3	90	0.00	29.810 
06:45	65.2	65.2	65.2	85	60.6	1	3	90	0.00	29.808 
06:50	65.0	65.0	65.0	85	60.4	1	3	135	0.00	29.808 
06:55	65.0	65.0	65.0	86	60.7	1	3	135	0.00	29.808 
07:00	64.8	64.8	64.8	85	60.2	1	4	112	0.00	29.806 
07:05	64.8	64.8	64.8	86	60.5	1	3	112	0.00	29.806 
07:10	64.8	64.8	64.8	86	60.5	1	4	90	0.00	29.806 
07:15	64.7	64.7	64.7	86	60.4	0	3	90	0.00	29.804 
07:20	64.7	64.7	64.7	86	60.4	1	4	90	0.00	29.804 
07:25	64.7	64.7	64.7	85	60.1	1	4	90	0.00	29.804 
07:30	64.7	64.7	64.7	85	60.1	1	5	90	0.00	29.792 
07:35	64.7	64.7	64.7	85	60.1	1	4	68	0.00	29.792 
07:40	64.5	64.5	64.5	85	59.9	1	4	90	0.00	29.792 
07:45	64.5	64.5	64.5	85	59.9	1	4	68	0.00	29.789 
07:50	64.5	64.5	64.5	85	59.9	1	3	68	0.00	29.789 
07:55	64.3	64.3	64.3	85	59.7	1	4	45	0.00	29.789 
08:00	64.3	64.3	64.3	86	60.0	1	4	90	0.00	29.783 
08:05	64.5	64.5	64.5	85	59.9	1	3	90	0.00	29.783 
08:10	64.5	64.5	64.5	85	59.9	1	5	90	0.00	29.783 
08:15	64.5	64.5	64.5	85	59.9	1	5	112	0.00	29.774 
08:20	64.7	64.7	64.7	85	60.1	1	3	90	0.00	29.774 
08:25	64.7	64.7	64.7	85	60.1	1	4	68	0.00	29.774 
08:30	64.8	64.8	64.8	85	60.2	1	5	112	0.00	29.766 
08:35	64.8	64.8	64.8	84	59.8	1	5	90	0.00	29.766 
08:40	65.0	65.0	65.0	84	60.0	1	6	112	0.00	29.766 
08:45	65.2	65.2	65.2	84	60.2	2	6	68	0.00	29.761 
08:50	65.2	65.2	65.2	84	60.2	1	4	90	0.00	29.761 
08:55	65.3	65.3	65.3	83	60.0	2	9	90	0.00	29.761 
09:00	65.5	65.5	65.5	83	60.2	3	10	90	0.00	29.755 
09:05	65.5	65.5	65.5	82	59.9	2	7	45	0.00	29.755 
09:10	65.5	65.5	65.5	82	59.9	2	5	45	0.00	29.755 
09:15	65.6	65.6	65.6	82	59.9	2	5	90	0.00	29.747 
09:20	65.6	65.6	65.6	81	59.6	3	7	45	0.00	29.747 
09:25	65.6	65.6	65.6	81	59.6	2	6	0	0.00	29.747 
09:30	65.8	65.8	65.8	81	59.8	3	9	90	0.00	29.742 
09:35	66.0	66.0	66.0	81	60.0	1	3	22	0.00	29.742 
09:40	66.1	66.1	66.1	80	59.7	3	6	90	0.00	29.742 
09:45	66.3	66.3	66.3	80	59.9	2	11	22	0.00	29.736 
09:50	66.4	66.4	66.4	79	59.7	2	9	68	0.00	29.736 
09:55	66.4	66.4	66.4	78	59.3	2	7	112	0.00	29.736 
10:00	66.6	66.6	66.6	78	59.5	3	11	90	0.00	29.714 
10:05	66.6	66.6	66.6	78	59.5	3	12	90	0.00	29.714 
10:10	66.6	66.6	66.6	78	59.5	3	11	90	0.00	29.714 
10:15	66.3	66.3	66.3	79	59.6	2	10	68	0.00	29.708 
10:20	66.1	66.1	66.1	79	59.4	3	10	112	0.00	29.708 
10:25	66.1	66.1	66.1	79	59.4	4	13	90	0.00	29.708 
10:30	66.1	66.1	66.1	79	59.4	2	7	90	0.00	29.680 
10:35	66.4	66.4	66.4	78	59.3	2	11	90	0.00	29.680 
10:40	66.6	66.6	66.6	77	59.2	2	10	270	0.00	29.680 
10:45	66.8	66.8	66.8	77	59.3	3	13	68	0.00	29.670 
10:50	66.8	66.8	66.8	76	59.0	3	11	90	0.00	29.670 
10:55	66.9	66.9	66.9	77	59.4	2	6	90	0.00	29.670 
11:00	66.9	66.9	66.9	76	59.1	3	10	112	0.00	29.680 
11:05	67.1	67.1	67.1	76	59.3	3	9	90	0.00	29.680 
11:10	67.1	67.1	67.1	75	58.9	3	11	68	0.00	29.680 
11:15	67.1	67.1	67.1	76	59.3	3	12	270	0.00	29.677 
11:20	67.3	67.3	67.3	75	59.1	3	11	248	0.00	29.677 
11:25	67.3	67.3	67.3	75	59.1	2	7	68	0.00	29.677 
11:30	67.4	67.4	67.4	74	58.8	3	10	45	0.00	29.656 
11:35	67.6	67.6	67.6	74	59.0	3	14	90	0.00	29.656 
11:40	67.8	67.8	67.8	73	58.8	2	10	248	0.00	29.656 
11:45	67.9	67.9	67.9	73	58.9	2	7	270	0.00	29.675 
11:50	67.9	67.9	67.9	72	58.5	3	7	270	0.00	29.675 
11:55	68.1	68.1	68.1	73	59.1	3	12	68	0.00	29.675 
12:00	68.3	68.3	68.3	71	58.5	2	7	270	0.00	29.677 
12:05	68.4	68.4	68.4	71	58.6	4	11	248	0.00	29.677 
12:10	68.4	68.4	68.4	70	58.2	3	9	292	0.00	29.677 
12:15	68.4	68.4	68.4	70	58.2	2	10	248	0.00	29.680 
12:20	68.4	68.4	68.4	69	57.8	4	11	248	0.00	29.680 
12:25	68.4	68.4	68.4	70	58.2	3	11	248	0.00	29.680 
12:30	68.4	68.4	68.4	69	57.8	3	14	248	0.00	29.681 
12:35	68.3	68.3	68.3	70	58.1	2	9	248	0.00	29.681 
12:40	68.3	68.3	68.3	70	58.1	2	6	248	0.00	29.681 
12:45	68.1	68.1	68.1	70	57.9	2	7	248	0.00	29.678 
12:50	68.1	68.1	68.1	71	58.3	4	13	270	0.00	29.678 
12:55	67.9	67.9	67.9	71	58.1	2	7	248	0.00	29.678 
13:00	67.8	67.8	67.8	72	58.4	2	6	248	0.00	29.676 
13:05	67.8	67.8	67.8	72	58.4	2	10	248	0.00	29.676 
13:10	67.8	67.8	67.8	72	58.4	2	6	248	0.00	29.676 
13:15	67.9	67.9	67.9	72	58.5	3	13	270	0.00	29.671 
13:20	67.9	67.9	67.9	72	58.5	1	3	248	0.00	29.671 
13:25	67.9	67.9	67.9	72	58.5	2	9	248	0.00	29.671 
13:30	68.1	68.1	68.1	72	58.7	2	9	248	0.00	29.665 
13:35	68.3	68.3	68.3	72	58.9	2	11	90	0.00	29.665 
13:40	68.4	68.4	68.4	72	59.0	3	11	248	0.00	29.665 
13:45	68.6	68.6	68.6	71	58.8	2	9	248	0.00	29.646 
13:50	68.9	68.9	68.9	71	59.1	3	12	248	0.00	29.646 
13:55	69.3	69.3	69.3	70	59.1	2	11	68	0.00	29.646 
14:00	69.4	69.4	69.4	70	59.2	3	9	270	0.00	29.631 
14:05	69.4	69.4	69.4	70	59.2	2	8	248	0.00	29.631 
14:10	69.4	69.4	69.4	69	58.8	3	7	248	0.00	29.631 
14:15	69.4	69.4	69.4	70	59.2	3	12	45	0.00	29.628 
14:20	69.4	69.4	69.4	70	59.2	2	7	248	0.00	29.628 
14:25	69.4	69.4	69.4	70	59.2	2	11	248	0.00	29.628 
14:30	69.8	69.8	69.8	69	59.2	4	13	248	0.00	29.611 
14:35	69.9	69.9	69.9	69	59.3	2	7	248	0.00	29.611 
14:40	70.3	70.3	70.3	68	59.2	2	9	248	0.00	29.611 
14:45	70.6	70.6	70.6	68	59.5	2	5	112	0.00	29.594 
14:50	70.8	70.8	70.8	68	59.7	3	8	68	0.00	29.594 
14:55	71.1	71.1	71.1	67	59.6	4	10	68	0.00	29.594 
15:00	71.1	71.1	71.1	66	59.2	3	10	68	0.00	29.581 
15:05	71.3	71.3	71.3	66	59.3	3	12	90	0.00	29.581 
15:10	71.5	71.5	71.5	67	60.0	2	8	248	0.00	29.581 
15:15	71.5	71.5	71.5	66	59.5	2	6	270	0.00	29.570 
15:20	71.6	71.6	71.6	65	59.2	2	9	248	0.00	29.570 
15:25	71.8	71.8	71.8	64	59.0	3	10	90	0.00	29.570 
15:30	71.8	71.8	71.8	63	58.5	5	17	248	0.00	29.556 
15:35	71.8	71.8	71.8	62	58.1	4	13	248	0.00	29.556 
15:40	72.3	72.3	72.3	61	58.1	4	12	270	0.00	29.556 
15:45	72.7	72.7	72.7	60	58.0	3	11	248	0.00	29.561 
15:50	73.0	73.0	73.0	59	57.8	3	13	248	0.00	29.561 
15:55	73.2	73.2	73.2	58	57.5	3	9	248	0.00	29.561 
16:00	73.2	73.2	73.2	58	57.5	4	10	248	0.00	29.554 
16:05	73.7	73.7	73.7	57	57.5	4	17	248	0.00	29.554 
16:10	74.0	74.0	74.0	56	57.3	5	12	248	0.00	29.554 
16:15	73.9	73.9	73.9	57	57.7	2	10	248	0.00	29.546 
16:20	73.3	73.3	73.3	57	57.1	2	10	270	0.00	29.546 
16:25	73.0	73.0	73.0	58	57.3	3	11	248	0.00	29.546 
16:30	72.7	72.7	72.7	58	57.1	3	9	270	0.00	29.547 
16:35	72.5	72.5	72.5	59	57.3	3	8	248	0.00	29.547 
16:40	72.3	72.3	72.3	59	57.2	4	13	248	0.00	29.547 
16:45	72.3	72.3	72.3	61	58.1	2	6	270	0.00	29.535 
16:50	72.1	72.1	72.1	61	57.9	2	7	248	0.00	29.535 
16:55	72.0	72.0	72.0	61	57.8	2	10	270	0.00	29.535 
17:00	71.8	71.8	71.8	59	56.7	4	12	270	0.00	29.532 
17:05	71.8	71.8	71.8	58	56.2	3	13	248	0.00	29.532 
17:10	72.0	72.0	72.0	58	56.4	4	15	248	0.00	29.532 
17:15	72.0	72.0	72.0	58	56.4	5	18	248	0.00	29.532 
17:20	71.8	71.8	71.8	60	57.2	4	10	248	0.00	29.532 
17:25	70.8	70.8	70.8	65	58.4	3	7	248	0.00	29.532 
17:30	68.4	68.4	68.4	75	60.2	3	9	248	0.02	29.542 
17:35	66.6	66.6	66.6	78	59.5	3	7	270	0.00	29.542 
17:40	66.1	66.1	66.1	79	59.4	2	6	248	0.00	29.542 
17:45	66.0	66.0	66.0	80	59.6	1	4	248	0.00	29.537 
17:50	66.0	66.0	66.0	79	59.3	1	5	248	0.00	29.537 
17:55	66.3	66.3	66.3	75	58.1	2	10	248	0.00	29.537 
18:00	67.6	67.6	67.6	68	56.7	3	14	270	0.00	29.528 
18:05	68.8	68.8	68.8	63	55.7	4	13	248	0.00	29.528 
18:10	69.4	69.4	69.4	61	55.4	3	9	248	0.00	29.528 
18:15	69.8	69.8	69.8	61	55.7	2	7	248	0.00	29.526 
18:20	69.9	69.9	69.9	59	54.9	2	10	270	0.00	29.526 
18:25	70.1	70.1	70.1	59	55.1	3	9	225	0.00	29.526 
18:30	70.1	70.1	70.1	58	54.6	4	12	248	0.00	29.521 
18:35	69.9	69.9	69.9	57	54.0	2	7	248	0.00	29.521 
18:40	69.8	69.8	69.8	57	53.9	3	12	248	0.00	29.521 
18:45	69.6	69.6	69.6	57	53.7	3	11	248	0.00	29.521 
18:50	69.4	69.4	69.4	57	53.5	3	7	248	0.00	29.521 
18:55	69.3	69.3	69.3	56	52.9	3	9	248	0.00	29.521 
19:00	69.3	69.3	69.3	56	52.9	2	7	248	0.00	29.514 
19:05	68.9	68.9	68.9	57	53.0	3	12	248	0.00	29.514 
19:10	68.9	68.9	68.9	57	53.0	2	6	248	0.00	29.514 
19:15	68.8	68.8	68.8	57	52.9	2	9	248	0.00	29.502 
19:20	68.8	68.8	68.8	57	52.9	2	10	248	0.00	29.502 
19:25	68.8	68.8	68.8	57	52.9	2	5	248	0.00	29.502 
19:30	68.9	68.9	68.9	57	53.0	3	7	248	0.00	29.501 
19:35	68.9	68.9	68.9	56	52.5	3	11	248	0.00	29.501 
19:40	69.1	69.1	69.1	56	52.7	3	9	248	0.00	29.501 
19:45	68.9	68.9	68.9	56	52.5	2	7	270	0.00	29.503 
19:50	68.9	68.9	68.9	57	53.0	1	6	248	0.00	29.503 
19:55	68.6	68.6	68.6	59	53.7	4	11	248	0.00	29.503 
20:00	67.9	67.9	67.9	65	55.7	4	8	248	0.02	29.527 
20:05	65.3	65.3	65.3	75	57.2	4	12	248	0.03	29.527 
20:10	63.5	63.5	63.5	81	57.6	3	8	248	0.00	29.527 
20:15	62.4	62.4	62.4	84	57.5	4	10	248	0.00	29.534 
20:20	61.8	61.8	61.8	85	57.2	2	9	248	0.00	29.534 
20:25	61.3	61.3	61.3	86	57.1	2	6	248	0.00	29.534 
20:30	61.2	61.2	61.2	87	57.3	4	10	248	0.00	29.532 
20:35	61.0	61.0	61.0	88	57.4	3	11	248	0.00	29.532 
20:40	61.0	61.0	61.0	88	57.4	2	9	248	0.00	29.532 
20:45	60.9	60.9	60.9	88	57.3	2	5	270	0.00	29.529 
20:50	60.9	60.9	60.9	88	57.3	2	6	248	0.00	29.529 
20:55	60.1	60.1	60.1	86	55.9	6	14	270	0.01	29.529 
21:00	59.3	59.3	59.3	84	54.5	5	13	270	0.00	29.556 
21:05	58.9	58.9	58.9	83	53.7	6	15	270	0.00	29.556 
21:10	58.7	58.7	58.7	83	53.5	5	11	270	0.00	29.556 
21:15	58.4	58.4	58.4	83	53.3	4	13	248	0.00	29.557 
21:20	58.1	58.1	58.1	84	53.3	5	13	248	0.00	29.557 
21:25	57.6	57.6	57.6	84	52.8	4	13	248	0.00	29.557 
21:30	57.3	57.3	57.3	84	52.5	5	12	270	0.00	29.574 
21:35	57.0	57.0	57.0	83	51.9	5	12	270	0.00	29.574 
21:40	56.7	56.7	56.7	82	51.3	4	13	248	0.00	29.574 
21:45	56.6	56.6	56.6	82	51.2	5	13	270	0.00	29.582 
21:50	56.0	56.0	56.0	84	51.2	6	14	270	0.00	29.582 
21:55	55.4	55.4	55.4	85	51.0	5	12	270	0.00	29.582 
22:00	55.0	55.0	55.0	85	50.6	5	15	270	0.00	29.602 
22:05	54.7	54.7	54.7	85	50.3	6	14	270	0.00	29.602 
22:10	54.5	54.5	54.5	85	50.1	5	10	270	0.00	29.602 
22:15	54.2	54.2	54.2	86	50.1	5	12	270	0.00	29.612 
22:20	54.1	54.1	54.1	86	50.0	4	10	270	0.00	29.612 
22:25	53.8	53.8	53.8	87	50.0	4	7	270	0.00	29.612 
22:30	53.5	53.5	53.5	87	49.7	4	10	270	0.00	29.629 
22:35	53.1	53.1	53.1	88	49.6	4	10	270	0.00	29.629 
22:40	52.8	52.8	52.8	88	49.3	4	10	270	0.00	29.629 
22:45	52.6	52.6	52.6	88	49.1	6	12	270	0.00	29.643 
22:50	52.5	52.5	52.5	88	49.0	4	10	270	0.00	29.643 
22:55	52.3	52.3	52.3	88	48.9	3	7	270	0.00	29.643 
23:00	52.3	52.3	52.3	88	48.9	3	6	270	0.00	29.658 
23:05	52.0	52.0	52.0	89	48.9	3	9	270	0.00	29.658 
23:10	51.7	51.7	51.7	89	48.6	3	7	270	0.00	29.658 
23:15	51.6	51.6	51.6	90	48.8	3	6	248	0.00	29.667 
23:20	51.4	51.4	51.4	89	48.3	3	6	270	0.00	29.667 
23:25	51.6	51.6	51.6	89	48.5	3	6	270	0.00	29.667 
23:30	51.6	51.6	51.6	89	48.5	3	6	270	0.00	29.678 
23:35	51.6	51.6	51.6	88	48.2	2	5	270	0.00	29.678 
23:40	51.6	51.6	51.6	88	48.2	3	7	270	0.00	29.678 
23:45	51.6	51.6	51.6	88	48.2	2	10	270	0.00	29.688 
23:50	51.6	51.6	51.6	88	48.2	4	8	270	0.00	29.688 
23:55	51.6	51.6	51.6	87	47.9	4	7	270	0.00	29.688 

CoCoRaHS
IN-AL-39
A2 Web Hosting
Creative Commons License
GoDaddy
search engine by freefind advanced

loaded 2018-11-15 13:51:32 • last modified 2010-11-18 10:43:29
Privacy PolicyDisclaimer
• wx.awcolley.com is powered by PmWiki v.2002016 •
• all content (unless otherwise noted) © 2018 A W Colley